Total_Precipitation_Accumulation
1.13 1.29 1.11 0.78 0.61 0.54 0.48 0.44 0.36 0.27 0.27 0.40 0.37 0.27 0.24 0.23 0.24 0.25 0.25 0.25 0.30 0.32 0.36 0.45 0.49 0.53 0.59 0.66 0.69 0.69 0.79 1.00 1.18 1.31 1.48 1.70 1.68 1.68 1.78 1.76 1.63 1.59 1.49 1.45
1.23 1.01 0.56 0.45 0.48 0.57 0.60 0.56 0.41 0.30 0.27 0.42 0.43 0.32 0.26 0.23 0.26 0.27 0.26 0.24 0.26 0.32 0.38 0.45 0.50 0.55 0.57 0.64 0.73 0.73 0.71 0.85 1.02 1.13 1.29 1.57 1.72 1.81 1.96 1.98 1.86 1.82 1.62 1.46
1.02 0.64 0.40 0.53 0.64 0.73 0.68 0.58 0.45 0.43 0.39 0.46 0.49 0.43 0.29 0.26 0.26 0.27 0.26 0.24 0.26 0.33 0.38 0.44 0.50 0.56 0.61 0.62 0.66 0.72 0.73 0.77 0.92 1.14 1.33 1.53 1.84 1.91 2.00 2.02 1.91 1.93 1.87 1.63
0.81 0.48 0.48 0.61 0.65 0.67 0.64 0.44 0.43 0.53 0.72 0.72 0.60 0.65 0.34 0.28 0.27 0.28 0.27 0.24 0.29 0.35 0.40 0.46 0.52 0.55 0.64 0.65 0.65 0.67 0.73 0.79 0.90 1.08 1.26 1.32 1.47 1.58 1.54 1.64 1.73 1.84 1.98 1.86
0.92 0.49 0.53 0.62 0.49 0.51 0.51 0.38 0.50 0.63 0.85 0.85 0.60 0.68 0.40 0.30 0.32 0.30 0.28 0.26 0.30 0.34 0.44 0.51 0.53 0.54 0.65 0.68 0.67 0.68 0.75 0.76 0.84 1.01 1.16 1.26 1.31 1.39 1.48 1.51 1.55 1.65 1.77 1.84
0.73 0.53 0.55 0.51 0.40 0.48 0.58 0.66 0.82 0.93 1.26 1.28 0.52 0.51 0.45 0.38 0.37 0.34 0.32 0.30 0.30 0.35 0.48 0.53 0.55 0.61 0.70 0.73 0.73 0.73 0.76 0.80 0.79 0.88 1.04 1.18 1.23 1.30 1.44 1.46 1.40 1.42 1.55 1.67
0.86 0.67 0.58 0.53 0.67 0.77 0.98 1.44 2.05 2.15 1.95 1.08 0.32 0.37 0.45 0.41 0.40 0.44 0.42 0.36 0.32 0.38 0.47 0.48 0.53 0.63 0.72 0.76 0.74 0.72 0.74 0.83 0.85 0.91 0.95 1.00 1.10 1.20 1.30 1.39 1.40 1.41 1.43 1.52
0.96 0.83 0.59 0.56 0.76 0.98 0.98 1.23 1.58 1.57 1.08 0.55 0.30 0.34 0.36 0.34 0.33 0.38 0.39 0.37 0.35 0.37 0.42 0.45 0.46 0.52 0.63 0.76 0.81 0.76 0.70 0.74 0.83 0.93 0.93 0.96 1.05 1.16 1.16 1.19 1.29 1.35 1.36 1.42
1.01 0.77 0.45 0.42 0.49 0.70 1.00 0.98 0.83 1.10 0.84 0.61 0.42 0.32 0.27 0.21 0.23 0.34 0.39 0.39 0.40 0.37 0.40 0.41 0.40 0.44 0.49 0.58 0.68 0.78 0.75 0.73 0.74 0.86 0.97 0.96 1.03 1.12 1.12 1.10 1.13 1.17 1.18 1.22
1.20 1.03 0.55 0.46 0.60 0.71 0.81 0.95 1.13 1.54 1.40 0.83 0.44 0.35 0.38 0.28 0.26 0.33 0.43 0.44 0.49 0.46 0.42 0.39 0.37 0.41 0.43 0.48 0.52 0.66 0.79 0.79 0.80 0.81 0.92 0.97 1.00 1.07 1.14 1.15 1.12 1.16 1.20 1.22
1.13 1.29 0.90 0.73 0.85 0.82 0.74 1.04 1.39 1.48 1.22 0.95 0.59 0.43 0.42 0.35 0.31 0.35 0.45 0.51 0.55 0.55 0.53 0.47 0.40 0.40 0.42 0.50 0.56 0.58 0.71 0.81 0.84 0.81 0.83 0.92 1.00 1.03 1.13 1.22 1.21 1.19 1.26 1.32
1.06 1.41 1.13 0.80 0.62 0.51 0.65 0.80 1.09 1.48 1.16 0.79 0.68 0.47 0.33 0.30 0.31 0.35 0.42 0.51 0.54 0.52 0.51 0.48 0.43 0.43 0.46 0.53 0.58 0.59 0.68 0.74 0.81 0.84 0.85 0.87 0.99 1.04 1.09 1.17 1.25 1.24 1.26 1.31
1.48 1.86 1.62 1.18 0.92 0.77 0.81 0.73 0.80 1.09 1.21 0.96 0.81 0.46 0.26 0.27 0.29 0.32 0.36 0.41 0.46 0.45 0.46 0.44 0.45 0.47 0.54 0.57 0.57 0.62 0.70 0.72 0.74 0.78 0.87 0.88 0.92 1.01 1.12 1.19 1.25 1.25 1.23 1.28
1.81 1.96 1.47 1.18 0.91 0.81 0.82 0.66 0.64 1.01 1.43 0.95 0.53 0.36 0.28 0.27 0.28 0.31 0.33 0.37 0.43 0.39 0.44 0.45 0.47 0.51 0.57 0.60 0.60 0.66 0.71 0.74 0.79 0.81 0.82 0.92 0.99 1.00 1.06 1.16 1.22 1.29 1.30 1.29
1.79 1.80 0.93 0.57 0.41 0.41 0.49 0.46 0.49 0.69 0.76 0.73 0.45 0.35 0.38 0.37 0.37 0.37 0.39 0.40 0.40 0.40 0.46 0.50 0.52 0.56 0.63 0.66 0.67 0.73 0.79 0.81 0.89 0.99 0.97 0.94 1.00 1.02 1.00 1.06 1.11 1.18 1.27 1.28
1.59 1.66 0.95 0.65 0.40 0.37 0.40 0.35 0.36 0.42 0.43 0.42 0.34 0.37 0.36 0.34 0.32 0.31 0.34 0.41 0.42 0.44 0.50 0.53 0.54 0.59 0.68 0.75 0.84 0.92 0.98 0.98 1.02 1.11 1.12 1.01 0.98 0.99 1.01 1.04 1.06 1.09 1.15 1.17
1.43 1.53 1.42 0.95 0.49 0.67 0.73 0.45 0.40 0.41 0.42 0.41 0.44 0.42 0.34 0.31 0.31 0.33 0.34 0.39 0.44 0.46 0.49 0.53 0.55 0.61 0.71 0.84 0.99 1.10 1.08 1.04 1.09 1.14 1.20 1.16 1.03 0.97 0.98 0.99 0.99 0.99 1.01 1.05
1.13 1.29 1.74 1.33 0.96 1.22 0.67 0.34 0.35 0.36 0.39 0.41 0.42 0.38 0.35 0.35 0.32 0.30 0.31 0.35 0.40 0.46 0.52 0.57 0.64 0.65 0.71 0.84 0.98 1.08 1.10 1.08 1.13 1.17 1.16 1.12 1.03 0.93 0.95 0.99 0.95 0.89 0.90 0.95
0.68 1.20 1.90 1.68 1.26 0.72 0.30 0.23 0.33 0.42 0.46 0.42 0.40 0.35 0.33 0.31 0.28 0.28 0.30 0.33 0.39 0.46 0.53 0.60 0.65 0.66 0.69 0.77 0.89 0.94 0.97 0.96 1.01 1.08 1.07 1.04 1.00 0.95 0.98 1.03 0.97 0.89 0.88 0.91
0.71 1.17 2.05 1.87 1.46 0.73 0.32 0.19 0.25 0.40 0.54 0.38 0.36 0.38 0.38 0.38 0.54 0.41 0.35 0.32 0.31 0.33 0.39 0.50 0.60 0.56 0.58 0.67 0.73 0.78 0.83 0.83 0.85 0.91 0.95 1.00 0.96 0.95 0.99 1.05 1.00 0.96 0.93 0.96
1.10 1.68 1.99 1.61 1.39 0.63 0.28 0.17 0.23 0.58 0.68 0.41 0.37 0.40 0.46 0.58 0.64 0.45 0.34 0.31 0.31 0.31 0.34 0.39 0.49 0.57 0.61 0.70 0.73 0.74 0.77 0.80 0.78 0.79 0.82 0.93 0.96 0.94 0.96 1.01 1.04 1.02 1.02 1.04
0.87 1.19 1.25 1.24 1.50 0.79 0.28 0.27 0.50 0.68 0.45 0.38 0.39 0.42 0.51 0.48 0.37 0.32 0.32 0.33 0.31 0.30 0.32 0.38 0.47 0.59 0.67 0.71 0.71 0.68 0.75 0.76 0.73 0.76 0.78 0.83 0.92 0.92 0.94 0.97 0.97 0.96 1.03 1.11
0.69 0.90 0.96 0.93 0.85 0.51 0.38 0.46 0.49 0.47 0.47 0.46 0.54 0.54 0.52 0.49 0.42 0.39 0.36 0.33 0.32 0.32 0.35 0.40 0.48 0.58 0.65 0.66 0.65 0.69 0.74 0.75 0.73 0.75 0.79 0.84 0.90 0.90 0.89 0.90 0.92 0.90 0.93 1.04
0.49 0.52 0.69 0.67 0.49 0.37 0.34 0.31 0.30 0.34 0.43 0.48 0.50 0.52 0.54 0.57 0.50 0.45 0.43 0.41 0.39 0.39 0.40 0.42 0.47 0.55 0.60 0.59 0.62 0.72 0.76 0.75 0.73 0.79 0.84 0.87 0.93 0.96 0.90 0.86 0.86 0.88 0.94 1.12
0.43 0.43 0.51 0.51 0.38 0.32 0.31 0.31 0.32 0.34 0.35 0.35 0.35 0.40 0.51 0.58 0.53 0.45 0.45 0.47 0.49 0.49 0.48 0.48 0.53 0.59 0.59 0.54 0.56 0.68 0.77 0.78 0.78 0.79 0.85 0.91 0.95 0.96 0.93 0.88 0.89 0.93 0.98 1.22
0.38 0.42 0.49 0.47 0.36 0.37 0.36 0.33 0.33 0.37 0.36 0.37 0.38 0.40 0.42 0.46 0.48 0.43 0.45 0.48 0.49 0.52 0.54 0.53 0.52 0.53 0.54 0.51 0.52 0.61 0.70 0.76 0.79 0.79 0.82 0.88 0.96 0.99 0.94 0.89 0.91 0.96 0.99 1.10